EW6547 Weather Reports


Display with metric or nautical units.
time (UTC)temp
F
wind
direction
speed
MPH
gust
MPH
rain 1hr
in
rain 24hr
in
rain mn
in
humidity
%
barometer
mb
20260507063038 48 179 1.0 4.0 0.00 0.00 0.00 54 1015.8
20260507061536 48 179 2.0 5.0 0.00 0.00 0.00 52 1015.5
20260507060006 48 179 2.0 3.0 0.00 0.00 0.00 53 1015.5
20260507054505 48 179 2.0 3.0 0.00 0.00 0.00 56 1015.3
20260507053005 48 179 2.0 5.0 0.00 0.00 0.00 57 1015.5
20260507051552 48 179 2.0 5.0 0.00 0.00 0.00 58 1015.7
20260507050055 49 179 1.0 4.0 0.00 0.00 0.00 58 1015.8
20260507044548 49 179 1.0 4.0 0.00 0.00 0.00 57 1015.6
20260507043048 49 179 1.0 4.0 0.00 0.00 0.00 57 1015.4
20260507041547 49 179 2.0 5.0 0.00 0.00 0.00 59 1015.4
20260507040042 49 179 2.0 5.0 0.00 0.00 0.00 61 1015.1
20260507034551 49 179 2.0 5.0 0.00 0.00 0.00 63 1015.0
20260507033056 49 179 2.0 4.0 0.00 0.00 0.00 67 1015.1
20260507031522 50 179 1.0 3.0 0.00 0.00 0.00 75 1014.9
20260507030022 51 179 0.0 2.0 0.00 0.00 0.00 74 1014.9
20260507024516 52 179 1.0 2.0 0.00 0.00 0.00 72 1014.8
20260507023013 53 179 0.0 1.0 0.00 0.00 0.00 70 1014.7
20260507021510 53 179 0.0 0.0 0.00 0.00 0.00 69 1014.6
20260507020007 54 179 0.0 2.0 0.00 0.00 0.00 66 1014.6
20260507014503 56 179 0.0 0.0 0.00 0.00 0.00 63 1014.6
20260507013116 57 179 0.0 2.0 0.00 0.00 0.00 61 1014.5
20260507011545 58 179 0.0 3.0 0.00 0.00 0.00 58 1014.6
20260507010043 58 179 0.0 6.0 0.00 0.00 0.00 57 1014.5
20260507004541 58 179 1.0 5.0 0.00 0.00 0.00 57 1014.4
20260507003039 59 179 0.0 5.0 0.00 0.00 0.00 55 1014.4
20260507001558 59 179 1.0 7.0 0.00 0.00 0.00 55 1014.4
20260507000032 59 179 1.0 6.0 0.00 0.00 0.00 55 1014.4
20260506234544 61 179 1.0 7.0 0.00 0.00 0.00 52 1014.3
20260506233028 61 179 1.0 4.0 0.00 0.00 0.00 52 1014.4
20260506231510 61 179 2.0 8.0 0.00 0.00 0.00 52 1014.5
20260506230010 62 179 2.0 6.0 0.00 0.00 0.00 51 1014.6
20260506224611 61 179 2.0 9.0 0.00 0.00 0.00 52 1014.5
20260506223058 61 179 3.0 7.0 0.00 0.00 0.00 51 1014.7
20260506221552 62 179 4.0 9.0 0.00 0.00 0.00 50 1014.9
20260506214545 61 179 1.0 6.0 0.00 0.00 0.00 51 1015.2
20260506213042 60 179 4.0 8.0 0.00 0.00 0.00 50 1015.5
20260506211550 60 179 2.0 7.0 0.00 0.00 0.00 51 1015.6
20260506210039 60 179 3.0 7.0 0.00 0.00 0.00 50 1015.7
20260506204528 59 179 1.0 4.0 0.00 0.00 0.00 53 1015.8
20260506203028 60 179 1.0 5.0 0.00 0.00 0.00 52 1016.0
20260506201525 59 179 2.0 5.0 0.00 0.00 0.00 51 1016.1
20260506200021 57 179 1.0 4.0 0.00 0.00 0.00 59 1016.2
20260506194531 56 179 1.0 5.0 0.00 0.00 0.00 61 1016.4
20260506193019 56 179 1.0 4.0 0.00 0.00 0.00 58 1016.3
20260506191518 56 179 1.0 7.0 0.00 0.00 0.00 57 1016.3
20260506190018 56 179 2.0 5.0 0.00 0.00 0.00 56 1016.5
20260506184503 56 179 0.0 4.0 0.00 0.00 0.00 57 1016.5
20260506183003 55 179 1.0 3.0 0.00 0.00 0.00 57 1016.7
20260506181502 54 179 0.0 3.0 0.00 0.00 0.00 56 1016.8
20260506180001 55 179 1.0 4.0 0.00 0.00 0.00 54 1016.7
20260506174601 56 179 2.0 5.0 0.00 0.00 0.00 51 1016.4
20260506173127 55 179 1.0 6.0 0.00 0.00 0.00 53 1016.6
20260506171602 55 179 1.0 3.0 0.00 0.00 0.00 52 1016.5
20260506170104 55 179 1.0 4.0 0.00 0.00 0.00 48 1016.3
20260506164542 55 179 1.0 3.0 0.00 0.00 0.00 48 1016.3
20260506163042 55 179 2.0 7.0 0.00 0.00 0.00 47 1016.2
20260506161538 54 179 0.0 2.0 0.00 0.00 0.00 53 1016.0
20260506160039 53 179 0.0 2.0 0.00 0.00 0.00 51 1016.2
20260506154531 52 179 0.0 2.0 0.00 0.00 0.00 58 1016.3
20260506153028 51 179 0.0 1.0 0.00 0.00 0.00 65 1016.1
20260506151523 49 179 1.0 2.0 0.00 0.00 0.00 70 1016.2
20260506150019 46 179 1.0 5.0 0.00 0.00 0.00 73 1016.2
20260506144507 42 179 1.0 3.0 0.00 0.00 0.00 80 1016.3
20260506143008 40 178 2.0 3.0 0.00 0.00 0.00 82 1016.3
20260506141505 39 179 2.0 3.0 0.00 0.00 0.00 81 1016.2
20260506140005 39 179 2.0 4.0 0.00 0.00 0.00 82 1016.1
20260506134503 39 179 1.0 4.0 0.00 0.00 0.00 81 1015.9
20260506133001 38 179 2.0 3.0 0.00 0.00 0.00 83 1015.6
20260506131605 38 179 2.0 4.0 0.00 0.00 0.00 82 1015.4
20260506124542 37 179 1.0 4.0 0.00 0.00 0.00 83 1015.2
20260506123040 37 179 2.0 4.0 0.00 0.00 0.00 83 1015.1
20260506121529 36 179 2.0 5.0 0.00 0.00 0.00 84 1015.1
20260506120029 36 179 1.0 4.0 0.00 0.00 0.00 84 1015.0
20260506114528 35 179 2.0 4.0 0.00 0.00 0.00 85 1015.1
20260506113027 35 179 1.0 4.0 0.00 0.00 0.00 84 1015.1
20260506111524 35 179 1.0 3.0 0.00 0.00 0.00 84 1015.0
20260506110025 34 179 1.0 5.0 0.00 0.00 0.00 84 1015.0
20260506104523 34 179 0.0 3.0 0.00 0.00 0.00 84 1015.0
20260506103034 34 179 0.0 2.0 0.00 0.00 0.00 85 1014.9
20260506101509 34 179 0.0 2.0 0.00 0.00 0.00 86 1014.9
20260506100011 34 179 0.0 1.0 0.00 0.00 0.00 87 1014.8
20260506094507 34 179 0.0 4.0 0.00 0.00 0.00 88 1014.8
20260506093008 34 179 1.0 3.0 0.00 0.00 0.00 88 1014.7
20260506091505 34 179 0.0 2.0 0.00 0.00 0.00 88 1014.6
20260506090004 34 179 0.0 0.0 0.00 0.00 0.00 89 1014.8
20260506084503 34 179 0.0 0.0 0.00 0.00 0.00 89 1014.8
20260506083003 34 179 0.0 3.0 0.00 0.00 0.00 89 1014.7
20260506081600 34 179 1.0 3.0 0.00 0.00 0.00 89 1014.7
20260506073042 35 179 0.0 3.0 0.00 0.00 0.00 88 1014.7
20260506071544 36 179 0.0 1.0 0.00 0.00 0.00 88 1015.0